[Date Prev][Date Next][Thread Prev][Thread Next] - [Date Index][Thread Index][Author Index]
2 Line ISS Keps 4-30
- Subject: [sarex] 2 Line ISS Keps 4-30
- From: "Dave Larsen PhD" <doc@xxxxxxxxxxx>
- Date: Wed, 30 Apr 2003 00:06:35 -0700
ISS
1 25544U 98067A 03120.15043981 .00031794 00000-0 40931-3 0 9463
2 25544 51.6329 261.5918 0006681 69.3921 283.9681 15.58731310253507
----
Via the sarex mailing list at AMSAT.ORG courtesy of AMSAT-NA.
To unsubscribe, send "unsubscribe sarex" to Majordomo@amsat.org
AMSAT Home